{"data":{"norad_id":55664,"intl_designator":"2023-021AN","name":"STARLINK-5480","alt_names":[],"object_type":"PAYLOAD","status":"ACTIVE","operator":null,"country":"US","launch_date":"2023-02-17","launch_site_code":"AFWTR","launch_vehicle":null,"mission":null,"orbit_class":"UNKNOWN","rcs_meters":null,"size_class":null,"mass_kg":null,"dimensions":null,"purposes":["comms"],"wikipedia_slug":null,"has_3d_model":false,"image_url":null,"decayed_at":null,"tle_current":{"epoch":"2026-09-20T20:05:39.307200Z","epoch_age_seconds":73980,"freshness":"FRESH","line1":"1 55664U 23021AN  26263.83726050  .00000576  00000+0  56091-4 0  9996","line2":"2 55664  70.0007  32.5043 0003125 273.7853  86.2949 14.98336216198510","mean_motion":14.98336216,"eccentricity":0.0003125,"inclination_deg":70.0007,"raan_deg":32.5043,"arg_perigee_deg":273.7853,"mean_anomaly_deg":86.2949,"bstar":5.6091e-5,"rev_number":19851,"period_min":96.106600416044,"perigee_km":569.86473927221,"apogee_km":574.20859781505,"semimajor_km":6950.1736685436,"source":"CELESTRAK","updated_at":"2026-09-21T09:00:33.308644Z"}}}